,,PA_Meas_PMT16A,,PR_Meas_QMR101_102,,RH_Meas_QMH101,,SR_Meas_QMS101,,TA_Meas_QMH101,,GenWind,,GenWind,
time,status,PA,status,PR,status,RH,status,SR,status,TA,status,DirAvg,status,SpdAvg,
2015-06-27, 07:07:04,VALID,919.958,VALID,0,VALID,97.534,VALID,85.8455,VALID,18.9034,VALID,128,VALID,1.24883,
2015-06-27, 07:08:04,VALID,919.974,VALID,0,VALID,97.2443,VALID,88.2092,VALID,18.9619,VALID,124,VALID,1.23086,
2015-06-27, 07:09:04,VALID,920.006,VALID,0,VALID,97.0156,VALID,90.7878,VALID,19.0203,VALID,137,VALID,1.21563,
2015-06-27, 07:10:04,VALID,919.991,VALID,0,VALID,96.7107,VALID,93.1515,VALID,19.0803,VALID,137,VALID,1.12109,
2015-06-27, 07:11:04,VALID,920.012,VALID,0,VALID,96.4057,VALID,96.1598,VALID,19.0983,VALID,137,VALID,1.50156,
2015-06-27, 07:12:04,VALID,920.043,VALID,0,VALID,96.1465,VALID,98.631,VALID,19.1568,VALID,146,VALID,1.36367,
2015-06-27, 07:13:04,VALID,920.055,VALID,0,VALID,95.9407,VALID,101.21,VALID,19.1958,VALID,137,VALID,1.29883,
2015-06-27, 07:14:04,VALID,920.071,VALID,0,VALID,95.7882,VALID,104.003,VALID,19.2348,VALID,136,VALID,1.74766,
2015-06-27, 07:15:04,VALID,920.083,VALID,0,VALID,95.6357,VALID,106.797,VALID,19.2528,VALID,134,VALID,1.23828,
2015-06-27, 07:16:04,VALID,920.096,VALID,0,VALID,95.5138,VALID,109.483,VALID,19.3518,VALID,116,VALID,1.31719,
2015-06-27, 07:17:04,VALID,920.123,VALID,0,VALID,95.3842,VALID,112.061,VALID,19.4103,VALID,126,VALID,0.289063,
2015-06-27, 07:18:04,VALID,920.141,VALID,0,VALID,95.0106,VALID,114.317,VALID,19.4883,VALID,121,VALID,0.821094,
2015-06-27, 07:19:04,VALID,920.164,VALID,0,VALID,94.7362,VALID,117.003,VALID,19.5663,VALID,134,VALID,0.691797,
2015-06-27, 07:20:04,VALID,920.15,VALID,0,VALID,94.294,VALID,119.689,VALID,19.6053,VALID,129,VALID,1.1543,
2015-06-27, 07:21:04,VALID,920.171,VALID,0,VALID,93.9281,VALID,122.375,VALID,19.6443,VALID,135,VALID,1.21094,
2015-06-27, 07:22:04,VALID,920.196,VALID,0,VALID,93.3868,VALID,125.276,VALID,19.7028,VALID,128,VALID,1.34727,
2015-06-27, 07:23:04,VALID,920.21,VALID,0,VALID,93.059,VALID,127.533,VALID,19.7403,VALID,134,VALID,1.35625,
2015-06-27, 07:24:04,VALID,920.219,VALID,0,VALID,92.3272,VALID,130.434,VALID,19.7988,VALID,139,VALID,1.42461,
2015-06-27, 07:25:04,VALID,920.254,VALID,0,VALID,91.4962,VALID,133.227,VALID,19.8978,VALID,133,VALID,1.28477,
2015-06-27, 07:26:04,VALID,920.264,VALID,0,VALID,90.2994,VALID,135.698,VALID,19.9563,VALID,129,VALID,1.23789,
2015-06-27, 07:27:04,VALID,920.273,VALID,0,VALID,89.9411,VALID,138.599,VALID,19.9743,VALID,131,VALID,1.32187,
2015-06-27, 07:28:04,VALID,920.334,VALID,0,VALID,90.0935,VALID,141.393,VALID,20.0538,VALID,128,VALID,1.31758,
2015-06-27, 07:29:04,VALID,920.3,VALID,0,VALID,89.0567,VALID,144.079,VALID,20.0913,VALID,137,VALID,1.50742,
2015-06-27, 07:30:04,VALID,920.3,VALID,0,VALID,88.9043,VALID,147.087,VALID,20.1318,VALID,131,VALID,1.25312,
2015-06-27, 07:31:04,VALID,920.32,VALID,0,VALID,89.5751,VALID,150.095,VALID,20.1708,VALID,140,VALID,0.740234,
2015-06-27, 07:32:04,VALID,920.323,VALID,0,VALID,89.4227,VALID,152.996,VALID,20.2083,VALID,133,VALID,1.06328,
2015-06-27, 07:33:04,VALID,920.362,VALID,0,VALID,88.3859,VALID,155.79,VALID,20.2278,VALID,136,VALID,0.938672,
2015-06-27, 07:34:04,VALID,920.361,VALID,0,VALID,88.1191,VALID,158.153,VALID,20.2684,VALID,117,VALID,0.124219,
2015-06-27, 07:35:04,VALID,920.369,VALID,0,VALID,88.2792,VALID,161.484,VALID,20.3284,VALID,123,VALID,0,
2015-06-27, 07:36:04,VALID,920.423,VALID,0,VALID,87.6235,VALID,164.707,VALID,20.3269,VALID,132,VALID,0,
2015-06-27, 07:37:04,VALID,920.414,VALID,0,VALID,87.3643,VALID,167.608,VALID,20.3854,VALID,125,VALID,0,
2015-06-27, 07:38:04,VALID,920.435,VALID,0,VALID,87.5244,VALID,170.939,VALID,20.4829,VALID,127,VALID,0,
2015-06-27, 07:39:04,VALID,920.441,VALID,0,VALID,87.2805,VALID,174.484,VALID,20.5999,VALID,117,VALID,0,
2015-06-27, 07:40:04,VALID,920.441,VALID,0,VALID,87.1204,VALID,177.278,VALID,20.678,VALID,111,VALID,0,
2015-06-27, 07:41:04,VALID,920.464,VALID,0,VALID,87.5244,VALID,180.609,VALID,20.795,VALID,118,VALID,0,
2015-06-27, 07:42:04,VALID,920.463,VALID,0,VALID,86.7468,VALID,183.724,VALID,20.873,VALID,114,VALID,0,
2015-06-27, 07:43:04,VALID,920.478,VALID,0,VALID,85.6415,VALID,186.84,VALID,20.8925,VALID,123,VALID,0,
2015-06-27, 07:44:04,VALID,920.517,VALID,0,VALID,85.1917,VALID,190.171,VALID,20.9316,VALID,129,VALID,0,
2015-06-27, 07:45:04,VALID,920.542,VALID,0,VALID,85.3136,VALID,192.964,VALID,20.969,VALID,135,VALID,0,
2015-06-27, 07:46:04,VALID,920.543,VALID,0,VALID,84.8867,VALID,196.08,VALID,21.0096,VALID,138,VALID,0,
2015-06-27, 07:47:04,VALID,920.561,VALID,0,VALID,85.611,VALID,199.303,VALID,21.0275,VALID,140,VALID,0,
2015-06-27, 07:48:04,VALID,920.539,VALID,0,VALID,85.0468,VALID,202.634,VALID,21.086,VALID,134,VALID,0,
2015-06-27, 07:49:04,VALID,920.559,VALID,0,VALID,85.0697,VALID,206.072,VALID,21.1836,VALID,112,VALID,0,
2015-06-27, 07:50:04,VALID,920.564,VALID,0,VALID,84.9782,VALID,209.51,VALID,21.2811,VALID,111,VALID,0,
2015-06-27, 07:51:04,VALID,920.551,VALID,0,VALID,85.0926,VALID,212.196,VALID,21.3981,VALID,123,VALID,0,
2015-06-27, 07:52:04,VALID,920.578,VALID,0,VALID,86.0455,VALID,215.849,VALID,21.4957,VALID,123,VALID,0,
2015-06-27, 07:53:04,VALID,920.582,VALID,0,VALID,85.1459,VALID,218.965,VALID,21.6713,VALID,123,VALID,0,
2015-06-27, 07:54:04,VALID,920.578,VALID,0,VALID,83.8042,VALID,221.866,VALID,21.8062,VALID,130,VALID,0,
2015-06-27, 07:55:04,VALID,920.596,VALID,0,VALID,82.5082,VALID,225.304,VALID,21.9249,VALID,139,VALID,0,
2015-06-27, 07:56:04,VALID,920.562,VALID,0,VALID,82.2567,VALID,228.635,VALID,22.003,VALID,139,VALID,0,
2015-06-27, 07:57:04,VALID,920.562,VALID,0,VALID,82.6073,VALID,231.751,VALID,22.081,VALID,139,VALID,0,
2015-06-27, 07:58:04,VALID,920.602,VALID,0,VALID,81.8298,VALID,235.081,VALID,22.0794,VALID,149,VALID,0,
2015-06-27, 07:59:04,VALID,920.599,VALID,0,VALID,81.7535,VALID,237.982,VALID,22.1184,VALID,151,VALID,0,
2015-06-27, 08:00:04,VALID,920.609,VALID,0,VALID,81.4638,VALID,241.85,VALID,22.0989,VALID,135,VALID,0,
2015-06-27, 08:01:04,VALID,920.612,VALID,0,VALID,81.6544,VALID,244.858,VALID,22.1184,VALID,135,VALID,0,
2015-06-27, 08:02:04,VALID,920.625,VALID,0,VALID,81.38,VALID,248.404,VALID,22.1184,VALID,135,VALID,0,
2015-06-27, 08:03:04,VALID,920.625,VALID,0,VALID,81.5629,VALID,252.164,VALID,22.1769,VALID,135,VALID,0,
2015-06-27, 08:04:04,VALID,920.649,VALID,0,VALID,81.3723,VALID,255.602,VALID,22.294,VALID,135,VALID,0,
2015-06-27, 08:05:04,VALID,920.654,VALID,0,VALID,81.2122,VALID,259.255,VALID,22.4306,VALID,135,VALID,0,
2015-06-27, 08:06:04,VALID,920.677,VALID,0,VALID,80.3965,VALID,263.553,VALID,22.5672,VALID,136,VALID,0,
2015-06-27, 08:07:04,VALID,920.663,VALID,0,VALID,78.8566,VALID,266.239,VALID,22.6274,VALID,114,VALID,0,
2015-06-27, 08:08:04,VALID,920.689,VALID,0,VALID,79.253,VALID,269.355,VALID,22.6647,VALID,111,VALID,0,
2015-06-27, 08:09:04,VALID,920.698,VALID,0,VALID,79.3369,VALID,272.578,VALID,22.725,VALID,115,VALID,0,
2015-06-27, 08:10:04,VALID,920.748,VALID,0,VALID,79.1768,VALID,275.264,VALID,22.6647,VALID,131,VALID,0,
2015-06-27, 08:11:04,VALID,920.759,VALID,0,VALID,78.2696,VALID,278.487,VALID,22.6843,VALID,133,VALID,0,
2015-06-27, 08:12:04,VALID,920.743,VALID,0,VALID,79.9163,VALID,281.281,VALID,22.7233,VALID,132,VALID,0,
2015-06-27, 08:13:04,VALID,920.747,VALID,0,VALID,80.0306,VALID,284.934,VALID,22.8209,VALID,111,VALID,0,
2015-06-27, 08:14:04,VALID,920.782,VALID,0,VALID,80.6405,VALID,288.265,VALID,22.9185,VALID,111,VALID,0,
2015-06-27, 08:15:04,VALID,920.784,VALID,0,VALID,78.8261,VALID,291.273,VALID,23.0356,VALID,111,VALID,0,
2015-06-27, 08:16:04,VALID,920.8,VALID,0,VALID,78.4831,VALID,294.389,VALID,23.1527,VALID,111,VALID,0,
2015-06-27, 08:17:04,VALID,920.824,VALID,0,VALID,79.032,VALID,297.075,VALID,23.3088,VALID,111,VALID,0,
2015-06-27, 08:18:04,VALID,920.832,VALID,0,VALID,77.1642,VALID,300.728,VALID,23.5235,VALID,111,VALID,0,
2015-06-27, 08:19:04,VALID,920.824,VALID,0,VALID,77.4082,VALID,304.166,VALID,23.6602,VALID,111,VALID,0,
2015-06-27, 08:20:04,VALID,920.838,VALID,0,VALID,74.5341,VALID,307.174,VALID,23.8358,VALID,111,VALID,0,
2015-06-27, 08:21:04,VALID,920.845,VALID,0,VALID,73.1314,VALID,310.612,VALID,23.7773,VALID,115,VALID,0,
2015-06-27, 08:22:04,VALID,920.836,VALID,0,VALID,74.9915,VALID,313.836,VALID,23.5626,VALID,115,VALID,0,
2015-06-27, 08:23:04,VALID,920.839,VALID,0,VALID,75.5176,VALID,317.274,VALID,23.4046,VALID,115,VALID,0,
2015-06-27, 08:24:04,VALID,920.839,VALID,0,VALID,78.4145,VALID,320.497,VALID,23.3461,VALID,115,VALID,0,
2015-06-27, 08:25:04,VALID,920.835,VALID,0,VALID,78.6127,VALID,322.753,VALID,23.3478,VALID,111,VALID,0,
2015-06-27, 08:26:04,VALID,920.834,VALID,0,VALID,77.0499,VALID,325.762,VALID,23.4454,VALID,111,VALID,0,
2015-06-27, 08:27:04,VALID,920.836,VALID,0,VALID,77.1109,VALID,329.629,VALID,23.5998,VALID,111,VALID,0,
2015-06-27, 08:28:04,VALID,920.846,VALID,0,VALID,76.4934,VALID,332.423,VALID,23.795,VALID,111,VALID,0,
2015-06-27, 08:29:04,VALID,920.858,VALID,0,VALID,76.2342,VALID,335.861,VALID,23.9707,VALID,111,VALID,0,
2015-06-27, 08:30:04,VALID,920.865,VALID,0,VALID,76.2875,VALID,339.621,VALID,24.2049,VALID,111,VALID,0,
2015-06-27, 08:31:04,VALID,920.859,VALID,0,VALID,75.0525,VALID,342.63,VALID,24.4997,VALID,111,VALID,0,
2015-06-27, 08:32:04,VALID,920.863,VALID,0,VALID,73.5202,VALID,345.746,VALID,24.6149,VALID,111,VALID,0,
2015-06-27, 08:33:04,VALID,920.898,VALID,0,VALID,73.8709,VALID,348.432,VALID,24.7535,VALID,111,VALID,0,
2015-06-27, 08:34:04,VALID,920.884,VALID,0,VALID,72.7808,VALID,350.473,VALID,24.9274,VALID,111,VALID,0,
2015-06-27, 08:35:04,VALID,920.902,VALID,0,VALID,68.2296,VALID,354.341,VALID,25.0445,VALID,111,VALID,0,
2015-06-27, 08:36:04,VALID,920.911,VALID,0,VALID,68.4811,VALID,357.134,VALID,25.025,VALID,111,VALID,0,
2015-06-27, 08:37:04,VALID,920.922,VALID,0,VALID,69.8915,VALID,359.928,VALID,24.8707,VALID,111,VALID,0,
2015-06-27, 08:38:04,VALID,920.91,VALID,0,VALID,70.8978,VALID,363.151,VALID,24.6363,VALID,111,VALID,0,
2015-06-27, 08:39:04,VALID,920.894,VALID,0,VALID,72.7274,VALID,366.482,VALID,24.5192,VALID,111,VALID,0,
2015-06-27, 08:40:04,VALID,920.902,VALID,0,VALID,71.7363,VALID,369.49,VALID,24.4392,VALID,111,VALID,0,
2015-06-27, 08:41:04,VALID,920.92,VALID,0,VALID,72.5444,VALID,373.036,VALID,24.3221,VALID,111,VALID,0,
2015-06-27, 08:42:04,VALID,920.915,VALID,0,VALID,72.0413,VALID,375.399,VALID,24.4392,VALID,111,VALID,0,
2015-06-27, 08:43:04,VALID,920.906,VALID,0,VALID,71.4695,VALID,378.623,VALID,24.5954,VALID,111,VALID,0,
2015-06-27, 08:44:04,VALID,920.905,VALID,0,VALID,71.3704,VALID,381.631,VALID,24.8297,VALID,111,VALID,0,
2015-06-27, 08:45:04,VALID,920.915,VALID,0,VALID,70.9511,VALID,384.21,VALID,24.9078,VALID,111,VALID,0,
2015-06-27, 08:46:04,VALID,920.888,VALID,0,VALID,71.0045,VALID,387.97,VALID,25.0269,VALID,111,VALID,0,
2015-06-27, 08:47:04,VALID,920.898,VALID,0,VALID,71.6601,VALID,390.871,VALID,25.0855,VALID,111,VALID,0,
2015-06-27, 08:48:04,VALID,920.884,VALID,0,VALID,72.9027,VALID,394.094,VALID,25.2007,VALID,111,VALID,0,
2015-06-27, 08:49:04,VALID,920.89,VALID,0,VALID,71.035,VALID,396.78,VALID,25.3765,VALID,111,VALID,0,
2015-06-27, 08:50:04,VALID,920.888,VALID,0,VALID,69.7695,VALID,400.541,VALID,25.5718,VALID,111,VALID,0,
2015-06-27, 08:51:04,VALID,920.91,VALID,0,VALID,68.9462,VALID,403.442,VALID,25.7085,VALID,111,VALID,0,
2015-06-27, 08:52:04,VALID,920.915,VALID,0,VALID,67.9323,VALID,406.235,VALID,25.8452,VALID,111,VALID,0,
2015-06-27, 08:53:04,VALID,920.878,VALID,0,VALID,68.9004,VALID,409.351,VALID,25.7476,VALID,158,VALID,0,
2015-06-27, 08:54:04,VALID,920.879,VALID,0,VALID,66.0188,VALID,412.789,VALID,25.4546,VALID,158,VALID,0,
2015-06-27, 08:55:04,VALID,920.91,VALID,0,VALID,65.3555,VALID,416.442,VALID,25.396,VALID,156,VALID,0,
2015-06-27, 08:56:04,VALID,920.906,VALID,0,VALID,65.6224,VALID,419.45,VALID,25.4937,VALID,152,VALID,0,
2015-06-27, 08:57:04,VALID,920.877,VALID,0,VALID,63.2439,VALID,422.244,VALID,25.4351,VALID,159,VALID,0,
2015-06-27, 08:58:04,VALID,920.904,VALID,0,VALID,64.2806,VALID,423.963,VALID,25.357,VALID,159,VALID,0,
2015-06-27, 08:59:04,VALID,920.892,VALID,0,VALID,66.8269,VALID,426.004,VALID,25.2007,VALID,159,VALID,0,
2015-06-27, 09:00:04,VALID,920.902,VALID,0,VALID,69.4265,VALID,428.69,VALID,24.9664,VALID,159,VALID,0,
2015-06-27, 09:01:04,VALID,920.912,VALID,0,VALID,70.7224,VALID,432.236,VALID,24.7497,VALID,159,VALID,0,
2015-06-27, 09:02:04,VALID,920.911,VALID,0,VALID,69.8076,VALID,435.029,VALID,24.7497,VALID,156,VALID,0,
2015-06-27, 09:03:04,VALID,920.885,VALID,0,VALID,68.0695,VALID,438.36,VALID,24.8102,VALID,159,VALID,0,
2015-06-27, 09:04:04,VALID,920.881,VALID,0,VALID,67.7798,VALID,441.261,VALID,24.8688,VALID,159,VALID,0,
2015-06-27, 09:05:04,VALID,920.909,VALID,0,VALID,67.2919,VALID,443.087,VALID,25.0426,VALID,159,VALID,0,
2015-06-27, 09:06:04,VALID,920.941,VALID,0,VALID,67.8255,VALID,446.418,VALID,25.2555,VALID,159,VALID,0,
2015-06-27, 09:07:04,VALID,920.921,VALID,0,VALID,66.278,VALID,448.782,VALID,25.355,VALID,159,VALID,0,
2015-06-27, 09:08:04,VALID,920.945,VALID,0,VALID,67.6349,VALID,451.79,VALID,25.3374,VALID,159,VALID,0,
2015-06-27, 09:09:04,VALID,920.928,VALID,0,VALID,67.2385,VALID,455.336,VALID,25.3394,VALID,67,VALID,0,
2015-06-27, 09:10:04,VALID,920.882,VALID,0,VALID,67.2995,VALID,459.311,VALID,25.4546,VALID,70,VALID,0,
2015-06-27, 09:11:04,VALID,920.903,VALID,0,VALID,66.1789,VALID,461.46,VALID,25.357,VALID,41,VALID,1.45195,
2015-06-27, 09:12:04,VALID,920.925,VALID,0,VALID,68.3134,VALID,465.005,VALID,25.2203,VALID,13,VALID,0,
2015-06-27, 09:13:04,VALID,920.959,VALID,0,VALID,67.2233,VALID,466.939,VALID,25.2788,VALID,10,VALID,0,
2015-06-27, 09:14:04,VALID,920.987,VALID,0,VALID,66.1255,VALID,469.733,VALID,25.357,VALID,8,VALID,0,
2015-06-27, 09:15:04,VALID,920.981,VALID,0,VALID,67.0556,VALID,473.063,VALID,25.3765,VALID,20,VALID,0,
2015-06-27, 09:16:04,VALID,920.992,VALID,0,VALID,66.4457,VALID,474.89,VALID,25.3765,VALID,18,VALID,0,
2015-06-27, 09:17:04,VALID,920.992,VALID,0,VALID,69.0605,VALID,477.254,VALID,25.4351,VALID,30,VALID,0.232812,
2015-06-27, 09:18:04,VALID,920.959,VALID,0,VALID,67.1623,VALID,481.121,VALID,25.437,VALID,22,VALID,0.981641,
2015-06-27, 09:19:04,VALID,921.008,VALID,0,VALID,67.1928,VALID,483.055,VALID,25.396,VALID,32,VALID,0,
2015-06-27, 09:20:04,VALID,920.937,VALID,0,VALID,66.0569,VALID,485.312,VALID,25.4156,VALID,44,VALID,0.939453,
2015-06-27, 09:21:04,VALID,920.944,VALID,0,VALID,67.3224,VALID,488.857,VALID,25.2984,VALID,53,VALID,0.500391,
2015-06-27, 09:22:04,VALID,920.951,VALID,0,VALID,69.6247,VALID,491.651,VALID,25.2769,VALID,28,VALID,0,
2015-06-27, 09:23:04,VALID,920.961,VALID,0,VALID,66.2551,VALID,494.444,VALID,25.4156,VALID,28,VALID,0,
2015-06-27, 09:24:04,VALID,920.947,VALID,0,VALID,66.0264,VALID,496.486,VALID,25.2007,VALID,28,VALID,0,
2015-06-27, 09:25:04,VALID,920.97,VALID,0,VALID,67.3376,VALID,499.709,VALID,25.1226,VALID,28,VALID,0,
2015-06-27, 09:26:04,VALID,920.977,VALID,0,VALID,66.7735,VALID,501.858,VALID,25.2203,VALID,13,VALID,1.45938,
2015-06-27, 09:27:04,VALID,921.001,VALID,0,VALID,68.1,VALID,504.651,VALID,25.1812,VALID,17,VALID,1.30547,
2015-06-27, 09:28:04,VALID,920.996,VALID,0,VALID,67.2919,VALID,507.122,VALID,25.1422,VALID,29,VALID,1.23828,
2015-06-27, 09:29:04,VALID,921.008,VALID,0,VALID,68.5269,VALID,508.949,VALID,25.2984,VALID,26,VALID,0.309375,
2015-06-27, 09:30:04,VALID,920.995,VALID,0,VALID,69.4646,VALID,511.312,VALID,25.4741,VALID,17,VALID,0,
2015-06-27, 09:31:04,VALID,921.005,VALID,0,VALID,68.1228,VALID,513.031,VALID,25.6109,VALID,328,VALID,0,
2015-06-27, 09:32:04,VALID,920.992,VALID,0,VALID,68.0695,VALID,515.932,VALID,25.6304,VALID,16,VALID,0.31875,
2015-06-27, 09:33:04,VALID,920.995,VALID,0,VALID,67.1089,VALID,517.651,VALID,25.6694,VALID,360,VALID,0.0121094,
2015-06-27, 09:34:04,VALID,920.999,VALID,0,VALID,66.8421,VALID,520.015,VALID,25.7476,VALID,354,VALID,0,
2015-06-27, 09:35:04,VALID,920.981,VALID,0,VALID,65.2641,VALID,523.023,VALID,25.8257,VALID,321,VALID,0.303125,
2015-06-27, 09:36:04,VALID,921.035,VALID,0,VALID,64.9591,VALID,526.462,VALID,25.982,VALID,339,VALID,0,
2015-06-27, 09:37:04,VALID,921.004,VALID,0,VALID,65.0964,VALID,529.9,VALID,26.0796,VALID,294,VALID,0,
2015-06-27, 09:38:04,VALID,921.038,VALID,0,VALID,64.5475,VALID,533.23,VALID,26.0992,VALID,294,VALID,0,
2015-06-27, 09:39:04,VALID,920.999,VALID,0,VALID,64.3188,VALID,536.239,VALID,26.1382,VALID,294,VALID,0,
2015-06-27, 09:40:04,VALID,920.988,VALID,0,VALID,62.4815,VALID,538.817,VALID,26.1578,VALID,5,VALID,0,
2015-06-27, 09:41:04,VALID,920.988,VALID,0,VALID,65.1268,VALID,540.107,VALID,26.1187,VALID,24,VALID,0,
2015-06-27, 09:42:04,VALID,920.985,VALID,0,VALID,63.7775,VALID,541.181,VALID,26.0992,VALID,318,VALID,0,
2015-06-27, 09:43:04,VALID,920.985,VALID,0,VALID,64.982,VALID,544.512,VALID,26.1187,VALID,311,VALID,0,
2015-06-27, 09:44:04,VALID,920.999,VALID,0,VALID,67.0327,VALID,546.016,VALID,26.0992,VALID,323,VALID,0,
2015-06-27, 09:45:04,VALID,921.038,VALID,0,VALID,63.8156,VALID,550.421,VALID,26.0601,VALID,269,VALID,0.408594,
2015-06-27, 09:46:04,VALID,921.032,VALID,0,VALID,63.5717,VALID,553.859,VALID,25.8062,VALID,303,VALID,0,
2015-06-27, 09:47:04,VALID,921.031,VALID,0,VALID,66.5295,VALID,555.578,VALID,25.7085,VALID,352,VALID,0,
2015-06-27, 09:48:04,VALID,921.002,VALID,0,VALID,65.1421,VALID,558.049,VALID,25.7456,VALID,356,VALID,0,
2015-06-27, 09:49:04,VALID,920.98,VALID,0,VALID,62.977,VALID,561.702,VALID,25.7085,VALID,268,VALID,0.0046875,
2015-06-27, 09:50:04,VALID,920.963,VALID,0,VALID,64.4484,VALID,563.636,VALID,25.6284,VALID,331,VALID,0.00429688,
2015-06-27, 09:51:04,VALID,920.965,VALID,0,VALID,63.8232,VALID,565.678,VALID,25.687,VALID,18,VALID,0,
2015-06-27, 09:52:04,VALID,920.958,VALID,0,VALID,64.6466,VALID,569.223,VALID,25.8628,VALID,1,VALID,0,
2015-06-27, 09:53:04,VALID,920.96,VALID,0,VALID,63.0761,VALID,570.405,VALID,25.98,VALID,313,VALID,0.00429688,
2015-06-27, 09:54:04,VALID,920.964,VALID,0,VALID,64.4102,VALID,574.166,VALID,26.0776,VALID,10,VALID,0.00429688,
2015-06-27, 09:55:04,VALID,920.989,VALID,0,VALID,64.0672,VALID,576.099,VALID,26.2339,VALID,38,VALID,0,
2015-06-27, 09:56:04,VALID,921.023,VALID,0,VALID,63.1295,VALID,582.009,VALID,26.3706,VALID,55,VALID,0,
2015-06-27, 09:57:04,VALID,921.039,VALID,0,VALID,63.3277,VALID,581.901,VALID,26.605,VALID,4,VALID,0,
2015-06-27, 09:58:04,VALID,921.012,VALID,0,VALID,61.3533,VALID,584.587,VALID,26.8806,VALID,7,VALID,0,
2015-06-27, 09:59:04,VALID,920.965,VALID,0,VALID,59.7066,VALID,585.554,VALID,27.0348,VALID,24,VALID,0,
2015-06-27, 10:00:04,VALID,920.942,VALID,0,VALID,60.568,VALID,589.1,VALID,26.9567,VALID,2,VALID,0.0046875,
2015-06-27, 10:01:04,VALID,920.913,VALID,0,VALID,60.4689,VALID,589.959,VALID,26.9958,VALID,12,VALID,1.13867,
2015-06-27, 10:02:04,VALID,920.91,VALID,0,VALID,60.7281,VALID,595.117,VALID,26.7223,VALID,19,VALID,1.97383,
2015-06-27, 10:03:04,VALID,920.885,VALID,0,VALID,61.9479,VALID,598.017,VALID,26.605,VALID,6,VALID,0.862109,
2015-06-27, 10:04:04,VALID,920.893,VALID,0,VALID,61.7573,VALID,600.166,VALID,26.605,VALID,15,VALID,0.126172,
2015-06-27, 10:05:04,VALID,920.9,VALID,0,VALID,59.4779,VALID,601.67,VALID,26.7418,VALID,19,VALID,0.0289063,
2015-06-27, 10:06:04,VALID,920.927,VALID,0,VALID,57.7474,VALID,603.175,VALID,26.8395,VALID,329,VALID,0,
2015-06-27, 10:07:04,VALID,920.851,VALID,0,VALID,58.7537,VALID,605.216,VALID,26.7613,VALID,8,VALID,1.25391,
2015-06-27, 10:08:04,VALID,920.902,VALID,0,VALID,58.5936,VALID,608.224,VALID,26.6832,VALID,351,VALID,0,
2015-06-27, 10:09:04,VALID,920.923,VALID,0,VALID,59.7142,VALID,610.588,VALID,26.7223,VALID,16,VALID,0.672266,
2015-06-27, 10:10:04,VALID,920.886,VALID,0,VALID,59.9658,VALID,612.092,VALID,26.6832,VALID,17,VALID,1.05703,
2015-06-27, 10:11:04,VALID,920.852,VALID,0,VALID,58.9747,VALID,614.671,VALID,26.6441,VALID,10,VALID,0.271094,
2015-06-27, 10:12:04,VALID,920.869,VALID,0,VALID,61.1627,VALID,617.464,VALID,26.564,VALID,20,VALID,0.0289063,
2015-06-27, 10:13:04,VALID,920.884,VALID,0,VALID,61.1322,VALID,618.969,VALID,26.6832,VALID,19,VALID,0,
2015-06-27, 10:14:04,VALID,920.871,VALID,0,VALID,59.5389,VALID,621.762,VALID,26.8199,VALID,22,VALID,0.260547,
2015-06-27, 10:15:04,VALID,920.872,VALID,0,VALID,58.1438,VALID,623.266,VALID,26.8199,VALID,1,VALID,2.68281,
2015-06-27, 10:16:04,VALID,920.857,VALID,0,VALID,57.8922,VALID,623.051,VALID,26.6616,VALID,7,VALID,1.20547,
2015-06-27, 10:17:04,VALID,920.847,VALID,0,VALID,59.4931,VALID,626.704,VALID,26.6832,VALID,22,VALID,0,
2015-06-27, 10:18:04,VALID,920.816,VALID,0,VALID,58.6241,VALID,628.531,VALID,26.8395,VALID,6,VALID,0,
2015-06-27, 10:19:04,VALID,920.794,VALID,0,VALID,59.2797,VALID,632.828,VALID,26.9762,VALID,347,VALID,0,
2015-06-27, 10:20:04,VALID,920.764,VALID,0,VALID,58.3954,VALID,633.258,VALID,26.896,VALID,253,VALID,0,
2015-06-27, 10:21:04,VALID,920.747,VALID,0,VALID,60.347,VALID,635.085,VALID,26.9958,VALID,330,VALID,0,
2015-06-27, 10:22:04,VALID,920.716,VALID,0,VALID,57.4043,VALID,638.523,VALID,27.15,VALID,33,VALID,0.409766,
2015-06-27, 10:23:04,VALID,920.729,VALID,0,VALID,55.8568,VALID,641.639,VALID,27.2477,VALID,7,VALID,0,
2015-06-27, 10:24:04,VALID,920.717,VALID,0,VALID,55.4908,VALID,643.25,VALID,27.3258,VALID,32,VALID,0,
2015-06-27, 10:25:04,VALID,920.75,VALID,0,VALID,54.7971,VALID,645.399,VALID,27.4821,VALID,77,VALID,0.000390625,
2015-06-27, 10:26:04,VALID,920.708,VALID,0,VALID,53.0209,VALID,648.622,VALID,27.4431,VALID,331,VALID,0.2375,
2015-06-27, 10:27:04,VALID,920.678,VALID,0,VALID,51.4276,VALID,649.482,VALID,27.3454,VALID,14,VALID,2.68711,
2015-06-27, 10:28:04,VALID,920.624,VALID,0,VALID,50.2383,VALID,650.664,VALID,27.0328,VALID,357,VALID,3.80312,
2015-06-27, 10:29:04,VALID,920.661,VALID,0,VALID,53.1962,VALID,652.383,VALID,26.6421,VALID,357,VALID,2.89531,
2015-06-27, 10:30:04,VALID,920.667,VALID,0,VALID,56.4971,VALID,654.531,VALID,26.5074,VALID,16,VALID,1.73438,
2015-06-27, 10:31:04,VALID,920.652,VALID,0,VALID,57.7779,VALID,654.854,VALID,26.566,VALID,20,VALID,0.820703,
2015-06-27, 10:32:04,VALID,920.692,VALID,0,VALID,55.3994,VALID,656.465,VALID,26.5835,VALID,308,VALID,2.02383,
2015-06-27, 10:33:04,VALID,920.666,VALID,0,VALID,54.9801,VALID,658.829,VALID,26.4663,VALID,21,VALID,1.26445,
2015-06-27, 10:34:04,VALID,920.601,VALID,0,VALID,53.7222,VALID,659.689,VALID,26.4683,VALID,25,VALID,0.658594,
2015-06-27, 10:35:04,VALID,920.622,VALID,0,VALID,55.9254,VALID,662.804,VALID,26.5855,VALID,8,VALID,0.398047,
2015-06-27, 10:36:04,VALID,920.627,VALID,0,VALID,56.1617,VALID,664.201,VALID,26.8004,VALID,18,VALID,0.235547,
2015-06-27, 10:37:04,VALID,920.584,VALID,0,VALID,57.7169,VALID,667.639,VALID,27.0935,VALID,354,VALID,0.247266,
2015-06-27, 10:38:04,VALID,920.554,VALID,0,VALID,54.6904,VALID,668.499,VALID,27.0523,VALID,8,VALID,0,
2015-06-27, 10:39:04,VALID,920.517,VALID,0,VALID,52.8684,VALID,668.929,VALID,27.113,VALID,19,VALID,0.188672,
2015-06-27, 10:40:04,VALID,920.489,VALID,0,VALID,54.1034,VALID,671.937,VALID,27.1325,VALID,26,VALID,1.03359,
2015-06-27, 10:41:04,VALID,920.497,VALID,0,VALID,52.5711,VALID,673.549,VALID,27.1695,VALID,356,VALID,0,
2015-06-27, 10:42:04,VALID,920.451,VALID,0,VALID,52.0832,VALID,675.805,VALID,27.2888,VALID,18,VALID,0,
2015-06-27, 10:43:04,VALID,920.44,VALID,0,VALID,52.3271,VALID,678.491,VALID,27.2888,VALID,26,VALID,1.44844,
2015-06-27, 10:44:04,VALID,920.388,VALID,0,VALID,50.4441,VALID,679.458,VALID,27.2281,VALID,21,VALID,1.68984,
2015-06-27, 10:45:04,VALID,920.413,VALID,0,VALID,52.35,VALID,682.789,VALID,27.2888,VALID,34,VALID,0.739453,
2015-06-27, 10:46:04,VALID,920.38,VALID,0,VALID,50.3603,VALID,684.185,VALID,27.4821,VALID,40,VALID,0,
2015-06-27, 10:47:04,VALID,920.397,VALID,0,VALID,47.5701,VALID,684.937,VALID,27.658,VALID,359,VALID,0.842969,
2015-06-27, 10:48:04,VALID,920.387,VALID,0,VALID,50.6424,VALID,687.086,VALID,27.5994,VALID,17,VALID,1.14531,
2015-06-27, 10:49:04,VALID,920.332,VALID,0,VALID,49.8266,VALID,687.838,VALID,27.5798,VALID,31,VALID,0.541797,